Location: Vigo di Fassa
(46.4167°N, 11.6667°E)
Time: 16:51:06
(UTC+00:00)

H-2A R/B - Pass Details

Date: 03 March 2021
Orbit: 732 x 837 km, 98.2° (Epoch: 14 April)

Event Time Altitude Azimuth Distance (km) Brightness Sun altitude
Rises 18:00:10 0° 171° (S) 3,364 5.2 -10.8°
Reaches altitude 10° 18:02:32 10° 173° (S) 2,440 4.5 -11.2°
Maximum altitude 18:07:57 72° 258° (WSW) 884 2.5 -12.1°
Drops below altitude 10° 18:13:25 10° 343° (NNW) 2,455 4.9 -13.0°
Sets 18:15:48 0° 345° (NNW) 3,387 5.6 -13.4°
